Time,TemperatureF,DewpointF,PressureIn,WindDirection,WindDirectionDegrees,WindSpeedMPH,WindSpeedGustMPH,Humidity,HourlyPrecipIn,Conditions,Clouds,dailyrainin,SoftwareType,DateUTC
2013-07-30 00:05:00,84.0,84.0,30.03,ENE,65,6.0,9.0,100,0.00,,,0.00,Wunderground v.1.15,2013-07-30 04:05:00,
2013-07-30 00:10:00,84.0,84.0,30.03,ENE,65,6.0,6.0,100,0.00,,,0.00,Wunderground v.1.15,2013-07-30 04:10:00,
2013-07-30 00:15:00,84.0,84.0,30.03,East,88,6.0,7.0,100,0.00,,,0.00,Wunderground v.1.15,2013-07-30 04:15:00,
2013-07-30 00:20:00,84.0,84.0,30.03,ENE,58,6.0,10.0,100,0.00,,,0.00,Wunderground v.1.15,2013-07-30 04:20:00,
2013-07-30 00:25:00,84.0,84.0,30.03,East,89,5.0,10.0,100,0.00,,,0.00,Wunderground v.1.15,2013-07-30 04:25:00,
2013-07-30 00:35:00,84.1,84.1,30.03,NE,55,4.0,6.0,100,0.00,,,0.00,Wunderground v.1.15,2013-07-30 04:35:00,
2013-07-30 00:45:00,84.1,84.1,30.03,ENE,66,2.0,3.0,100,0.00,,,0.00,Wunderground v.1.15,2013-07-30 04:45:00,
2013-07-30 00:55:00,84.1,84.1,30.03,ENE,64,3.0,5.0,100,0.00,,,0.00,Wunderground v.1.15,2013-07-30 04:55:00,
2013-07-30 01:00:00,84.1,84.1,30.03,NE,55,4.0,6.0,100,0.00,,,0.00,Wunderground v.1.15,2013-07-30 05:00:00,
2013-07-30 01:10:00,84.3,84.3,30.03,ENE,68,3.0,6.0,100,0.00,,,0.00,Wunderground v.1.15,2013-07-30 05:10:00,
2013-07-30 01:20:00,84.1,84.1,30.03,ENE,72,5.0,6.0,100,0.00,,,0.00,Wunderground v.1.15,2013-07-30 05:20:00,
2013-07-30 01:30:00,84.1,84.1,30.02,East,83,4.0,4.0,100,0.00,,,0.00,Wunderground v.1.15,2013-07-30 05:30:00,
2013-07-30 01:40:00,84.1,84.1,30.02,ENE,68,3.0,3.0,100,0.00,,,0.00,Wunderground v.1.15,2013-07-30 05:40:00,
2013-07-30 01:50:00,84.1,84.1,30.02,ENE,58,2.0,5.0,100,0.00,,,0.00,Wunderground v.1.15,2013-07-30 05:50:00,
2013-07-30 01:55:00,84.1,84.1,30.02,East,79,2.0,6.0,100,0.00,,,0.00,Wunderground v.1.15,2013-07-30 05:55:00,
2013-07-30 02:15:00,84.0,84.0,30.01,SE,126,3.0,3.0,100,0.00,,,0.00,Wunderground v.1.15,2013-07-30 06:15:00,
2013-07-30 02:25:00,84.0,84.0,30.01,ENE,75,3.0,4.0,100,0.00,,,0.00,Wunderground v.1.15,2013-07-30 06:25:00,
2013-07-30 02:30:00,84.1,84.1,30.00,ENE,69,3.0,6.0,100,0.00,,,0.00,Wunderground v.1.15,2013-07-30 06:30:00,
2013-07-30 02:40:00,84.1,84.1,30.00,East,83,5.0,5.0,100,0.00,,,0.00,Wunderground v.1.15,2013-07-30 06:40:00,
2013-07-30 02:45:00,84.1,84.1,30.00,ENE,78,3.0,5.0,100,0.00,,,0.00,Wunderground v.1.15,2013-07-30 06:45:00,
2013-07-30 02:55:00,84.0,84.0,30.00,East,83,3.0,3.0,100,0.00,,,0.00,Wunderground v.1.15,2013-07-30 06:55:00,
2013-07-30 03:00:00,84.1,84.1,30.00,ENE,78,3.0,8.0,100,0.00,,,0.00,Wunderground v.1.15,2013-07-30 07:00:00,
2013-07-30 03:10:00,84.3,84.3,30.00,East,90,4.0,4.0,100,0.00,,,0.00,Wunderground v.1.15,2013-07-30 07:10:00,
2013-07-30 03:15:00,84.1,84.1,29.99,ESE,123,4.0,4.0,100,0.00,,,0.00,Wunderground v.1.15,2013-07-30 07:15:00,
2013-07-30 03:25:00,84.1,84.1,29.99,ESE,103,3.0,4.0,100,0.00,,,0.00,Wunderground v.1.15,2013-07-30 07:25:00,
2013-07-30 03:30:00,84.1,84.1,29.99,East,83,3.0,3.0,100,0.00,,,0.00,Wunderground v.1.15,2013-07-30 07:30:00,
2013-07-30 03:40:00,84.0,84.0,29.99,ESE,113,2.0,2.0,100,0.00,,,0.00,Wunderground v.1.15,2013-07-30 07:40:00,
2013-07-30 03:45:00,84.0,84.0,29.98,ENE,78,3.0,4.0,100,0.00,,,0.00,Wunderground v.1.15,2013-07-30 07:45:00,
2013-07-30 03:55:00,84.0,84.0,29.98,ESE,120,3.0,6.0,100,0.00,,,0.00,Wunderground v.1.15,2013-07-30 07:55:00,
2013-07-30 04:05:00,84.0,84.0,29.99,ESE,110,2.0,3.0,100,0.00,,,0.00,Wunderground v.1.15,2013-07-30 08:05:00,
2013-07-30 04:15:00,84.0,84.0,29.98,East,100,2.0,2.0,100,0.00,,,0.00,Wunderground v.1.15,2013-07-30 08:15:00,
2013-07-30 04:25:00,83.8,83.8,29.98,East,83,2.0,2.0,100,0.00,,,0.00,Wunderground v.1.15,2013-07-30 08:25:00,
2013-07-30 04:30:00,84.0,84.0,29.98,ESE,112,1.0,5.0,100,0.00,,,0.00,Wunderground v.1.15,2013-07-30 08:30:00,
2013-07-30 04:40:00,84.0,84.0,29.98,ENE,75,2.0,5.0,100,0.00,,,0.00,Wunderground v.1.15,2013-07-30 08:40:00,
2013-07-30 04:50:00,84.0,84.0,29.98,ESE,117,2.0,4.0,100,0.00,,,0.00,Wunderground v.1.15,2013-07-30 08:50:00,
2013-07-30 04:55:00,83.8,83.8,29.98,East,96,3.0,4.0,100,0.00,,,0.00,Wunderground v.1.15,2013-07-30 08:55:00,
2013-07-30 05:05:00,84.0,84.0,29.98,ESE,107,2.0,3.0,100,0.00,,,0.00,Wunderground v.1.15,2013-07-30 09:05:00,
2013-07-30 05:10:00,84.0,84.0,29.98,SE,124,2.0,3.0,100,0.00,,,0.00,Wunderground v.1.15,2013-07-30 09:10:00,
2013-07-30 05:20:00,81.6,81.6,29.98,ESE,110,7.0,11.0,100,0.00,,,0.00,Wunderground v.1.15,2013-07-30 09:20:00,
2013-07-30 05:25:00,80.5,80.5,29.98,SE,130,9.0,11.0,100,0.00,,,0.00,Wunderground v.1.15,2013-07-30 09:25:00,
2013-07-30 05:35:00,80.1,80.1,29.98,East,86,5.0,8.0,100,0.00,,,0.00,Wunderground v.1.15,2013-07-30 09:35:00,
2013-07-30 05:40:00,80.1,80.1,29.98,East,100,2.0,2.0,100,0.00,,,0.00,Wunderground v.1.15,2013-07-30 09:40:00,
2013-07-30 05:50:00,80.7,80.7,29.98,ESE,103,0.0,0.0,100,0.00,,,0.00,Wunderground v.1.15,2013-07-30 09:50:00,
2013-07-30 06:00:00,81.4,81.4,29.98,East,90,1.0,1.0,100,0.00,,,0.00,Wunderground v.1.15,2013-07-30 10:00:00,
2013-07-30 06:10:00,81.6,81.6,29.98,East,83,0.0,0.0,100,0.00,,,0.00,Wunderground v.1.15,2013-07-30 10:10:00,
2013-07-30 06:20:00,82.2,82.2,30.00,East,97,0.0,0.0,100,0.00,,,0.00,Wunderground v.1.15,2013-07-30 10:20:00,
2013-07-30 06:30:00,82.6,82.6,30.00,East,99,0.0,0.0,100,0.00,,,0.00,Wunderground v.1.15,2013-07-30 10:30:00,
2013-07-30 06:35:00,82.8,82.8,30.00,East,97,0.0,0.0,100,0.00,,,0.00,Wunderground v.1.15,2013-07-30 10:35:00,
2013-07-30 06:45:00,83.0,83.0,30.00,East,96,0.0,0.0,100,0.00,,,0.00,Wunderground v.1.15,2013-07-30 10:45:00,
2013-07-30 06:50:00,83.0,83.0,30.00,East,96,0.0,0.0,100,0.00,,,0.00,Wunderground v.1.15,2013-07-30 10:50:00,
2013-07-30 07:00:00,82.8,82.8,30.00,East,96,0.0,0.0,100,0.00,,,0.00,Wunderground v.1.15,2013-07-30 11:00:00,
2013-07-30 07:10:00,82.4,82.4,30.00,East,96,0.0,0.0,100,0.00,,,0.00,Wunderground v.1.15,2013-07-30 11:10:00,
2013-07-30 07:20:00,82.2,82.2,30.00,East,96,0.0,0.0,100,0.00,,,0.00,Wunderground v.1.15,2013-07-30 11:20:00,
2013-07-30 07:25:00,82.0,82.0,30.00,East,96,0.0,0.0,100,0.00,,,0.00,Wunderground v.1.15,2013-07-30 11:25:00,
2013-07-30 07:30:00,82.0,82.0,30.02,East,96,0.0,0.0,100,0.00,,,0.00,Wunderground v.1.15,2013-07-30 11:30:00,
2013-07-30 07:40:00,82.0,82.0,30.02,East,96,0.0,0.0,100,0.00,,,0.00,Wunderground v.1.15,2013-07-30 11:40:00,
2013-07-30 07:45:00,82.0,82.0,30.02,East,96,0.0,0.0,100,0.00,,,0.00,Wunderground v.1.15,2013-07-30 11:45:00,
2013-07-30 07:55:00,82.2,82.2,30.02,East,96,0.0,0.0,100,0.00,,,0.00,Wunderground v.1.15,2013-07-30 11:55:00,
2013-07-30 08:05:00,82.4,82.4,30.02,East,96,0.0,0.0,100,0.00,,,0.00,Wunderground v.1.15,2013-07-30 12:05:00,
2013-07-30 08:15:00,82.4,82.4,30.01,ENE,68,1.0,4.0,100,0.00,,,0.00,Wunderground v.1.15,2013-07-30 12:15:00,
2013-07-30 08:25:00,82.6,82.6,30.01,ENE,69,1.0,1.0,100,0.00,,,0.00,Wunderground v.1.15,2013-07-30 12:25:00,
2013-07-30 08:35:00,82.6,82.6,30.03,ENE,69,4.0,7.0,100,0.00,,,0.00,Wunderground v.1.15,2013-07-30 12:35:00,
2013-07-30 08:40:00,82.4,82.4,30.03,ENE,58,6.0,6.0,100,0.00,,,0.00,Wunderground v.1.15,2013-07-30 12:40:00,
2013-07-30 08:50:00,82.8,82.8,30.02,East,97,5.0,11.0,100,0.00,,,0.00,Wunderground v.1.15,2013-07-30 12:50:00,
2013-07-30 09:00:00,82.0,82.0,30.03,SE,128,7.0,7.0,100,0.00,,,0.00,Wunderground v.1.15,2013-07-30 13:00:00,
2013-07-30 09:10:00,81.4,81.4,30.03,ENE,71,7.0,8.0,100,0.00,,,0.00,Wunderground v.1.15,2013-07-30 13:10:00,
2013-07-30 09:20:00,81.6,81.6,30.04,ENE,65,5.0,6.0,100,0.00,,,0.00,Wunderground v.1.15,2013-07-30 13:20:00,
2013-07-30 09:30:00,81.6,81.6,30.03,East,83,2.0,2.0,100,0.00,,,0.00,Wunderground v.1.15,2013-07-30 13:30:00,
2013-07-30 09:40:00,82.0,82.0,30.03,East,92,1.0,1.0,100,0.00,,,0.00,Wunderground v.1.15,2013-07-30 13:40:00,
2013-07-30 09:45:00,82.2,82.2,30.03,ENE,69,2.0,2.0,100,0.00,,,0.00,Wunderground v.1.15,2013-07-30 13:45:00,
2013-07-30 09:55:00,82.6,82.6,30.03,ENE,69,1.0,3.0,100,0.00,,,0.00,Wunderground v.1.15,2013-07-30 13:55:00,
2013-07-30 10:05:00,82.8,82.8,30.04,ENE,69,0.0,0.0,100,0.00,,,0.00,Wunderground v.1.15,2013-07-30 14:05:00,
2013-07-30 10:10:00,83.0,83.0,30.04,ENE,69,0.0,0.0,100,0.00,,,0.00,Wunderground v.1.15,2013-07-30 14:10:00,
2013-07-30 10:20:00,83.2,83.2,30.04,East,79,1.0,1.0,100,0.00,,,0.00,Wunderground v.1.15,2013-07-30 14:20:00,
2013-07-30 10:25:00,83.2,83.2,30.04,East,79,0.0,1.0,100,0.00,,,0.00,Wunderground v.1.15,2013-07-30 14:25:00,
2013-07-30 10:35:00,83.2,83.2,30.04,ENE,72,1.0,1.0,100,0.00,,,0.00,Wunderground v.1.15,2013-07-30 14:35:00,
2013-07-30 10:45:00,83.4,83.4,30.04,ENE,71,1.0,1.0,100,0.00,,,0.00,Wunderground v.1.15,2013-07-30 14:45:00,
2013-07-30 10:50:00,83.6,83.6,30.04,ENE,73,2.0,3.0,100,0.00,,,0.00,Wunderground v.1.15,2013-07-30 14:50:00,
2013-07-30 11:00:00,84.0,84.0,30.05,ENE,65,4.0,6.0,100,0.00,,,0.00,Wunderground v.1.15,2013-07-30 15:00:00,
2013-07-30 11:05:00,84.1,84.1,30.05,ENE,73,4.0,6.0,100,0.00,,,0.00,Wunderground v.1.15,2013-07-30 15:05:00,
2013-07-30 11:15:00,84.1,84.1,30.05,ENE,71,5.0,10.0,100,0.00,,,0.00,Wunderground v.1.15,2013-07-30 15:15:00,
2013-07-30 11:20:00,84.1,84.1,30.05,ENE,72,5.0,7.0,100,0.00,,,0.00,Wunderground v.1.15,2013-07-30 15:20:00,
2013-07-30 11:30:00,84.5,84.5,30.05,ENE,62,5.0,10.0,100,0.00,,,0.00,Wunderground v.1.15,2013-07-30 15:30:00,
2013-07-30 11:35:00,84.5,84.5,30.05,ENE,64,6.0,10.0,100,0.00,,,0.00,Wunderground v.1.15,2013-07-30 15:35:00,
2013-07-30 11:45:00,84.7,84.7,30.05,ENE,59,7.0,10.0,100,0.00,,,0.00,Wunderground v.1.15,2013-07-30 15:45:00,
2013-07-30 11:55:00,85.1,85.1,30.05,East,89,6.0,7.0,100,0.00,,,0.00,Wunderground v.1.15,2013-07-30 15:55:00,
2013-07-30 12:00:00,85.3,85.3,30.05,ENE,58,5.0,7.0,100,0.00,,,0.00,Wunderground v.1.15,2013-07-30 16:00:00,
2013-07-30 12:10:00,85.9,85.9,30.05,East,82,5.0,6.0,100,0.00,,,0.00,Wunderground v.1.15,2013-07-30 16:10:00,
2013-07-30 12:20:00,86.1,86.1,30.04,ENE,68,6.0,6.0,100,0.00,,,0.00,Wunderground v.1.15,2013-07-30 16:20:00,
2013-07-30 12:25:00,86.3,86.3,30.04,ENE,71,6.0,12.0,100,0.00,,,0.00,Wunderground v.1.15,2013-07-30 16:25:00,
2013-07-30 12:35:00,86.1,86.1,30.05,NE,54,9.0,10.0,100,0.00,,,0.00,Wunderground v.1.15,2013-07-30 16:35:00,
2013-07-30 12:40:00,86.3,86.3,30.05,ENE,73,9.0,9.0,100,0.00,,,0.00,Wunderground v.1.15,2013-07-30 16:40:00,
2013-07-30 12:50:00,86.5,86.5,30.04,ENE,68,7.0,7.0,100,0.00,,,0.00,Wunderground v.1.15,2013-07-30 16:50:00,
2013-07-30 13:00:00,86.5,86.5,30.04,ENE,68,7.0,7.0,100,0.00,,,0.00,Wunderground v.1.15,2013-07-30 17:00:00,
2013-07-30 13:10:00,87.0,87.0,30.04,ENE,58,5.0,13.0,100,0.00,,,0.00,Wunderground v.1.15,2013-07-30 17:10:00,
2013-07-30 13:15:00,86.5,86.5,30.03,East,96,4.0,13.0,100,0.00,,,0.00,Wunderground v.1.15,2013-07-30 17:15:00,
2013-07-30 13:25:00,86.3,86.3,30.03,East,79,6.0,11.0,100,0.00,,,0.00,Wunderground v.1.15,2013-07-30 17:25:00,
2013-07-30 13:35:00,86.3,86.3,30.03,ESE,106,6.0,10.0,100,0.00,,,0.00,Wunderground v.1.15,2013-07-30 17:35:00,
2013-07-30 13:45:00,86.3,86.3,30.04,ENE,72,5.0,5.0,100,0.00,,,0.00,Wunderground v.1.15,2013-07-30 17:45:00,
2013-07-30 13:55:00,86.1,86.1,30.04,East,83,5.0,5.0,100,0.00,,,0.00,Wunderground v.1.15,2013-07-30 17:55:00,
2013-07-30 14:05:00,85.9,85.9,30.04,East,95,5.0,5.0,100,0.00,,,0.00,Wunderground v.1.15,2013-07-30 18:05:00,
2013-07-30 14:10:00,85.9,85.9,30.04,ESE,104,6.0,6.0,100,0.00,,,0.00,Wunderground v.1.15,2013-07-30 18:10:00,
2013-07-30 14:20:00,85.7,85.7,30.02,ESE,117,6.0,6.0,100,0.00,,,0.00,Wunderground v.1.15,2013-07-30 18:20:00,
2013-07-30 14:25:00,85.9,85.9,30.02,NE,47,5.0,6.0,100,0.00,,,0.00,Wunderground v.1.15,2013-07-30 18:25:00,
2013-07-30 14:35:00,85.9,85.9,30.02,SSE,154,5.0,6.0,100,0.00,,,0.00,Wunderground v.1.15,2013-07-30 18:35:00,
2013-07-30 14:40:00,85.7,85.7,30.02,ESE,109,4.0,4.0,100,0.00,,,0.00,Wunderground v.1.15,2013-07-30 18:40:00,
2013-07-30 14:50:00,85.9,85.9,30.02,ENE,76,5.0,6.0,100,0.00,,,0.00,Wunderground v.1.15,2013-07-30 18:50:00,
2013-07-30 15:00:00,85.7,85.7,30.01,East,83,6.0,6.0,100,0.00,,,0.00,Wunderground v.1.15,2013-07-30 19:00:00,
2013-07-30 15:10:00,85.1,85.1,30.01,ESE,120,5.0,10.0,100,0.00,,,0.00,Wunderground v.1.15,2013-07-30 19:10:00,
2013-07-30 15:20:00,84.7,84.7,30.00,ESE,119,6.0,6.0,100,0.00,,,0.00,Wunderground v.1.15,2013-07-30 19:20:00,
2013-07-30 15:25:00,84.1,84.1,30.00,ESE,107,6.0,11.0,100,0.00,,,0.00,Wunderground v.1.15,2013-07-30 19:25:00,
2013-07-30 15:35:00,84.5,84.5,30.00,SE,126,5.0,9.0,100,0.00,,,0.00,Wunderground v.1.15,2013-07-30 19:35:00,
2013-07-30 15:45:00,84.1,84.1,30.00,ESE,112,4.0,8.0,100,0.00,,,0.00,Wunderground v.1.15,2013-07-30 19:45:00,
2013-07-30 15:50:00,84.3,84.3,30.00,East,82,3.0,3.0,100,0.00,,,0.00,Wunderground v.1.15,2013-07-30 19:50:00,
2013-07-30 16:00:00,84.7,84.7,29.99,East,100,3.0,3.0,100,0.00,,,0.00,Wunderground v.1.15,2013-07-30 20:00:00,
2013-07-30 16:05:00,85.1,85.1,29.99,NE,45,2.0,3.0,100,0.00,,,0.00,Wunderground v.1.15,2013-07-30 20:05:00,
2013-07-30 16:15:00,85.1,85.1,29.98,ENE,59,7.0,11.0,100,0.00,,,0.00,Wunderground v.1.15,2013-07-30 20:15:00,
2013-07-30 16:20:00,85.1,85.1,29.98,ENE,66,8.0,8.0,100,0.00,,,0.00,Wunderground v.1.15,2013-07-30 20:20:00,
2013-07-30 16:30:00,84.9,84.9,29.98,East,79,8.0,9.0,100,0.00,,,0.00,Wunderground v.1.15,2013-07-30 20:30:00,
2013-07-30 16:40:00,85.1,85.1,29.98,ENE,75,8.0,8.0,100,0.00,,,0.00,Wunderground v.1.15,2013-07-30 20:40:00,
2013-07-30 16:50:00,85.5,85.5,29.98,ENE,58,6.0,6.0,100,0.00,,,0.00,Wunderground v.1.15,2013-07-30 20:50:00,
2013-07-30 17:00:00,85.3,85.3,29.99,ENE,58,5.0,7.0,100,0.00,,,0.00,Wunderground v.1.15,2013-07-30 21:00:00,
2013-07-30 17:05:00,85.3,85.3,29.99,ENE,61,7.0,7.0,100,0.00,,,0.00,Wunderground v.1.15,2013-07-30 21:05:00,
2013-07-30 17:15:00,85.1,85.1,29.98,East,83,7.0,7.0,100,0.00,,,0.00,Wunderground v.1.15,2013-07-30 21:15:00,
2013-07-30 17:20:00,85.1,85.1,29.98,ENE,72,6.0,7.0,100,0.00,,,0.00,Wunderground v.1.15,2013-07-30 21:20:00,
2013-07-30 17:30:00,84.9,84.9,29.98,NE,47,8.0,8.0,100,0.00,,,0.00,Wunderground v.1.15,2013-07-30 21:30:00,
2013-07-30 17:40:00,84.9,84.9,29.98,ENE,71,7.0,11.0,100,0.00,,,0.00,Wunderground v.1.15,2013-07-30 21:40:00,
2013-07-30 17:50:00,84.9,84.9,29.98,NE,55,8.0,10.0,100,0.00,,,0.00,Wunderground v.1.15,2013-07-30 21:50:00,
2013-07-30 18:00:00,84.7,84.7,29.98,ENE,61,7.0,11.0,100,0.00,,,0.00,Wunderground v.1.15,2013-07-30 22:00:00,
2013-07-30 18:05:00,84.9,84.9,29.98,ENE,68,7.0,11.0,100,0.00,,,0.00,Wunderground v.1.15,2013-07-30 22:05:00,
2013-07-30 18:15:00,84.9,84.9,29.98,ENE,73,6.0,11.0,100,0.00,,,0.00,Wunderground v.1.15,2013-07-30 22:15:00,
2013-07-30 18:25:00,84.9,84.9,29.98,ESE,119,5.0,5.0,100,0.00,,,0.00,Wunderground v.1.15,2013-07-30 22:25:00,
2013-07-30 18:30:00,84.9,84.9,29.98,East,80,6.0,6.0,100,0.00,,,0.00,Wunderground v.1.15,2013-07-30 22:30:00,
2013-07-30 18:40:00,84.7,84.7,29.98,NE,49,6.0,10.0,100,0.00,,,0.00,Wunderground v.1.15,2013-07-30 22:40:00,
2013-07-30 18:45:00,84.7,84.7,29.99,ESE,121,6.0,10.0,100,0.00,,,0.00,Wunderground v.1.15,2013-07-30 22:45:00,
2013-07-30 18:55:00,84.5,84.5,29.99,East,95,5.0,5.0,100,0.00,,,0.00,Wunderground v.1.15,2013-07-30 22:55:00,
2013-07-30 19:00:00,84.7,84.7,29.99,ENE,73,6.0,10.0,100,0.00,,,0.00,Wunderground v.1.15,2013-07-30 23:00:00,
2013-07-30 19:10:00,84.7,84.7,29.99,ENE,64,5.0,5.0,100,0.00,,,0.00,Wunderground v.1.15,2013-07-30 23:10:00,
2013-07-30 19:20:00,84.7,84.7,30.00,ENE,61,5.0,5.0,100,0.00,,,0.00,Wunderground v.1.15,2013-07-30 23:20:00,
2013-07-30 19:25:00,84.7,84.7,30.00,ENE,65,6.0,11.0,100,0.00,,,0.00,Wunderground v.1.15,2013-07-30 23:25:00,
2013-07-30 19:35:00,84.7,84.7,30.00,ENE,69,6.0,9.0,100,0.00,,,0.00,Wunderground v.1.15,2013-07-30 23:35:00,
2013-07-30 19:40:00,84.5,84.5,30.00,East,80,7.0,7.0,100,0.00,,,0.00,Wunderground v.1.15,2013-07-30 23:40:00,
2013-07-30 19:45:00,84.5,84.5,30.00,ENE,64,6.0,8.0,100,0.00,,,0.00,Wunderground v.1.15,2013-07-30 23:45:00,
2013-07-30 19:55:00,84.5,84.5,30.00,ENE,64,6.0,7.0,100,0.00,,,0.00,Wunderground v.1.15,2013-07-30 23:55:00,
2013-07-30 20:05:00,84.5,84.5,30.00,NE,52,5.0,6.0,100,0.00,,,0.00,Wunderground v.1.15,2013-07-31 00:05:00,
2013-07-30 20:10:00,84.5,84.5,30.00,East,95,4.0,5.0,100,0.00,,,0.00,Wunderground v.1.15,2013-07-31 00:10:00,
2013-07-30 20:20:00,84.7,84.7,30.00,ESE,104,4.0,5.0,100,0.00,,,0.00,Wunderground v.1.15,2013-07-31 00:20:00,
2013-07-30 20:25:00,84.5,84.5,30.00,ENE,71,4.0,7.0,100,0.00,,,0.00,Wunderground v.1.15,2013-07-31 00:25:00,
2013-07-30 20:35:00,84.1,84.1,30.00,ESE,112,3.0,5.0,100,0.00,,,0.00,Wunderground v.1.15,2013-07-31 00:35:00,
2013-07-30 20:45:00,84.5,84.5,30.00,ENE,69,3.0,6.0,100,0.00,,,0.00,Wunderground v.1.15,2013-07-31 00:45:00,
2013-07-30 20:55:00,84.5,84.5,30.00,East,90,4.0,7.0,100,0.00,,,0.00,Wunderground v.1.15,2013-07-31 00:55:00,
2013-07-30 21:05:00,84.5,84.5,30.01,ENE,76,5.0,6.0,100,0.00,,,0.00,Wunderground v.1.15,2013-07-31 01:05:00,
2013-07-30 21:15:00,84.3,84.3,30.01,East,96,6.0,8.0,100,0.00,,,0.00,Wunderground v.1.15,2013-07-31 01:15:00,
2013-07-30 21:20:00,84.3,84.3,30.01,NE,55,6.0,6.0,100,0.00,,,0.00,Wunderground v.1.15,2013-07-31 01:20:00,
2013-07-30 21:30:00,84.3,84.3,30.00,ENE,78,4.0,4.0,100,0.00,,,0.00,Wunderground v.1.15,2013-07-31 01:30:00,
2013-07-30 21:40:00,84.3,84.3,30.00,East,90,4.0,7.0,100,0.00,,,0.00,Wunderground v.1.15,2013-07-31 01:40:00,
2013-07-30 21:50:00,84.1,84.1,29.98,NE,52,2.0,2.0,100,0.00,,,0.00,Wunderground v.1.15,2013-07-31 01:50:00,
2013-07-30 22:00:00,84.0,84.0,29.98,NE,56,1.0,1.0,100,0.00,,,0.00,Wunderground v.1.15,2013-07-31 02:00:00,
2013-07-30 22:05:00,84.0,84.0,29.98,ENE,59,2.0,2.0,100,0.00,,,0.00,Wunderground v.1.15,2013-07-31 02:05:00,
2013-07-30 22:15:00,84.1,84.1,29.98,NE,51,4.0,10.0,100,0.00,,,0.00,Wunderground v.1.15,2013-07-31 02:15:00,
2013-07-30 22:20:00,84.0,84.0,29.98,East,82,6.0,6.0,100,0.00,,,0.00,Wunderground v.1.15,2013-07-31 02:20:00,
2013-07-30 22:30:00,83.4,83.4,30.00,ENE,73,6.0,7.0,100,0.00,,,0.00,Wunderground v.1.15,2013-07-31 02:30:00,
2013-07-30 22:40:00,83.4,83.4,30.00,East,93,6.0,6.0,100,0.00,,,0.00,Wunderground v.1.15,2013-07-31 02:40:00,
2013-07-30 22:50:00,83.4,83.4,30.00,East,93,5.0,5.0,100,0.00,,,0.00,Wunderground v.1.15,2013-07-31 02:50:00,
2013-07-30 22:55:00,83.2,83.2,30.00,ENE,66,4.0,12.0,100,0.00,,,0.00,Wunderground v.1.15,2013-07-31 02:55:00,
2013-07-30 23:05:00,83.2,83.2,30.00,ENE,68,7.0,7.0,100,0.00,,,0.00,Wunderground v.1.15,2013-07-31 03:05:00,
2013-07-30 23:15:00,83.2,83.2,30.00,ENE,78,6.0,10.0,100,0.00,,,0.00,Wunderground v.1.15,2013-07-31 03:15:00,
2013-07-30 23:25:00,83.6,83.6,30.00,ENE,65,7.0,7.0,100,0.00,,,0.00,Wunderground v.1.15,2013-07-31 03:25:00,
2013-07-30 23:30:00,83.6,83.6,29.99,ENE,66,7.0,8.0,100,0.00,,,0.00,Wunderground v.1.15,2013-07-31 03:30:00,
2013-07-30 23:40:00,83.8,83.8,29.99,ENE,72,5.0,7.0,100,0.00,,,0.00,Wunderground v.1.15,2013-07-31 03:40:00,
2013-07-30 23:45:00,83.8,83.8,30.00,NE,40,4.0,7.0,100,0.00,,,0.00,Wunderground v.1.15,2013-07-31 03:45:00,
2013-07-30 23:55:00,83.6,83.6,30.00,ESE,104,7.0,7.0,100,0.00,,,0.00,Wunderground v.1.15,2013-07-31 03:55:00,